Temp
13 13 13 12 12 12 12 12 12 11 11 11 12 12 12 12 12 12 12 12 12 13
13 13 12 12 12 12 12 12 12 12 12 12 12 12 12 12 12 12 12 12 13 12
13 13 12 12 12 12 12 12 12 12 12 12 12 12 12 12 12 12 12 12 12 12
13 13 12 12 12 12 12 12 12 12 12 12 12 12 12 12 12 12 12 12 12 12
13 13 12 12 12 12 12 12 12 13 13 12 12 12 12 12 12 12 12 13 13 12
13 12 12 12 13 12 12 12 12 12 12 12 12 12 12 12 12 12 12 13 13 12
13 12 12 12 13 13 12 12 12 12 12 12 12 12 12 12 12 12 12 12 12 12
13 12 12 13 13 13 13 12 12 12 12 12 12 12 12 12 13 12 11 10 11 11
13 13 12 12 13 13 13 12 12 12 12 12 12 12 12 12 12 12 11 11 10 11
13 13 13 12 12 13 12 12 12 12 11 11 11 11 11 11 11 11 11 10 11 11
13 13 13 13 13 13 13 12 12 12 12 11 10 11 10 10 10 11 10 11 11 11
13 13 13 13 13 13 13 13 12 12 12 11 11 10 10 10 10 11 10 10 10 11
13 13 13 13 13 13 13 13 12 12 12 12 11 11 11 11 11 11 11 11 11 11
14 13 13 13 13 13 13 13 12 12 12 12 12 12 11 11 12 12 12 12 11 11
Height
1453 1452 1450 1448 1446 1445 1445 1446 1448 1450 1453 1454 1456 1458 1461 1465 1468 1470 1473 1476 1477 1479
1452 1452 1450 1448 1447 1446 1446 1447 1449 1451 1453 1455 1457 1459 1463 1466 1469 1471 1474 1476 1477 1479
1452 1452 1451 1449 1448 1447 1447 1448 1449 1451 1454 1456 1458 1461 1464 1467 1469 1472 1474 1476 1477 1479
1452 1452 1451 1449 1448 1448 1448 1448 1450 1452 1454 1457 1459 1462 1464 1467 1469 1472 1474 1475 1478 1480
1452 1452 1451 1449 1449 1449 1448 1449 1450 1452 1455 1458 1460 1463 1465 1467 1469 1472 1473 1476 1479 1482
1452 1452 1452 1450 1450 1450 1450 1451 1452 1453 1456 1459 1461 1463 1465 1467 1470 1472 1474 1477 1480 1483
1453 1453 1453 1452 1452 1452 1453 1453 1454 1455 1457 1460 1463 1465 1466 1468 1470 1472 1475 1477 1480 1483
1453 1454 1455 1453 1454 1455 1455 1456 1457 1458 1459 1461 1464 1467 1468 1470 1472 1474 1476 1479 1483 1486
1454 1455 1456 1456 1455 1456 1457 1458 1459 1461 1462 1464 1466 1468 1470 1473 1475 1476 1478 1481 1485 1488
1454 1456 1457 1458 1458 1458 1459 1460 1461 1462 1463 1464 1466 1468 1471 1474 1476 1479 1481 1484 1487 1490
1455 1457 1459 1460 1460 1461 1461 1462 1463 1464 1464 1464 1464 1468 1471 1475 1478 1481 1483 1486 1490 1492
1455 1457 1459 1461 1462 1463 1464 1464 1466 1467 1468 1468 1468 1471 1473 1475 1479 1482 1485 1488 1492 1495
1454 1457 1459 1461 1463 1465 1466 1467 1469 1470 1472 1473 1473 1475 1478 1480 1482 1485 1489 1493 1498 1502
1453 1457 1460 1462 1464 1466 1468 1469 1471 1473 1475 1477 1478 1479 1481 1485 1488 1491 1494 1498 1502 1506
Wind_Speed
3 7 8 9 7 5 3 6 10 8 8 7 9 10 11 10 11 11 11 10 8 6
3 6 7 7 7 3 3 6 11 10 9 8 11 9 12 11 10 11 11 10 8 8
3 5 7 7 5 5 3 5 11 11 11 9 10 10 12 11 9 9 9 8 8 8
2 4 6 7 4 3 3 6 9 12 12 9 9 9 9 8 8 10 9 10 8 7
2 3 5 5 5 5 5 7 8 12 12 8 8 8 8 7 8 8 11 11 10 8
2 3 5 6 8 7 9 9 9 9 10 10 9 8 8 8 9 9 8 9 10 11
3 4 6 9 8 7 9 10 11 12 12 11 10 9 9 8 8 8 8 8 8 11
8 7 8 9 10 8 9 10 11 11 12 11 11 11 16 13 9 8 10 11 11 13
10 8 7 10 10 9 9 9 10 9 10 11 11 9 9 6 9 8 11 13 13 13
11 10 8 9 10 10 8 8 8 7 6 8 12 10 9 6 8 9 13 15 16 18
13 12 10 9 8 8 9 9 12 11 9 7 13 16 10 8 9 9 13 16 17 20
15 14 13 10 7 7 10 11 14 13 13 13 18 16 13 17 16 19 19 18 20 26
17 15 14 11 9 10 11 12 13 12 11 11 15 17 18 20 25 26 25 27 26 25
16 17 14 13 11 12 13 13 13 13 12 12 14 16 16 17 22 24 23 26 26 21
Wind_Direction
16 2 358 358 15 34 86 163 172 157 152 146 164 169 176 174 180 185 195 206 189 212
35 11 7 19 14 33 78 147 170 161 161 143 150 149 161 165 171 174 186 192 216 219
31 22 16 23 30 58 123 143 166 172 166 152 154 154 161 168 174 182 191 201 204 201
28 29 17 24 57 92 102 142 158 174 173 162 166 168 172 173 179 176 185 187 187 189
54 45 23 37 87 87 93 131 153 171 175 167 165 175 179 179 169 166 173 166 169 169
106 78 39 98 102 94 103 114 126 150 168 169 161 154 152 161 163 163 165 176 181 179
139 122 76 116 107 94 109 119 123 127 132 140 140 139 141 154 160 165 151 160 153 164
144 131 104 114 130 97 108 120 122 123 132 137 134 123 130 123 113 126 140 134 140 145
150 137 121 108 124 127 126 126 118 133 139 134 142 143 155 132 115 116 135 138 141 150
157 149 127 121 113 113 133 137 130 124 150 185 197 177 178 161 132 123 139 144 150 144
169 157 147 132 119 110 120 132 125 113 106 107 182 184 189 180 168 136 144 157 151 149
179 167 155 151 134 119 129 129 133 120 104 100 112 122 131 151 151 142 131 138 142 143
183 180 161 156 145 137 134 136 137 128 122 107 109 120 120 129 138 138 137 136 138 138
189 186 175 164 156 150 146 143 141 138 130 125 120 117 119 142 145 144 149 147 145 145